TimeCDT,TemperatureF,Dew PointF,Humidity,Sea Level PressureIn,VisibilityMPH,Wind Direction,Wind SpeedMPH,Gust SpeedMPH,PrecipitationIn,Events,Conditions,WindDirDegrees,DateUTC
12:53 AM,79.0,66.0,64,29.67,10.0,South,21.9,36.8,N/A,,Clear,190,2013-05-28 05:53:00
1:53 AM,79.0,66.9,66,29.67,10.0,South,20.7,31.1,N/A,,Clear,190,2013-05-28 06:53:00
2:53 AM,78.1,66.9,68,29.67,10.0,South,17.3,25.3,N/A,,Clear,190,2013-05-28 07:53:00
3:53 AM,78.1,66.9,68,29.67,10.0,South,13.8,25.3,N/A,,Clear,190,2013-05-28 08:53:00
4:53 AM,77.0,68.0,74,29.67,9.0,South,18.4,27.6,N/A,,Clear,190,2013-05-28 09:53:00
5:53 AM,77.0,68.0,74,29.69,9.0,SSW,18.4,28.8,N/A,,Mostly Cloudy,200,2013-05-28 10:53:00
6:07 AM,75.2,68.0,78,29.73,9.0,South,18.4,28.8,N/A,,Scattered Clouds,190,2013-05-28 11:07:00
6:53 AM,75.9,68.0,76,29.69,7.0,South,18.4,27.6,N/A,,Clear,180,2013-05-28 11:53:00
7:53 AM,75.9,68.0,76,29.70,7.0,South,23.0,33.4,N/A,,Partly Cloudy,190,2013-05-28 12:53:00
8:53 AM,75.9,68.0,76,29.70,7.0,South,20.7,27.6,N/A,,Scattered Clouds,190,2013-05-28 13:53:00
9:50 AM,78.8,68.0,69,29.74,7.0,South,19.6,28.8,N/A,,Mostly Cloudy,180,2013-05-28 14:50:00
9:53 AM,78.1,68.0,71,29.71,7.0,South,19.6,28.8,N/A,,Mostly Cloudy,190,2013-05-28 14:53:00
10:53 AM,78.1,68.0,71,29.71,7.0,South,18.4,26.5,N/A,,Mostly Cloudy,180,2013-05-28 15:53:00
11:53 AM,80.1,68.0,67,29.72,8.0,South,17.3,33.4,N/A,,Overcast,180,2013-05-28 16:53:00
12:51 PM,80.6,66.2,61,29.76,8.0,South,19.6,28.8,N/A,,Overcast,190,2013-05-28 17:51:00
12:53 PM,80.1,66.9,64,29.73,8.0,South,18.4,28.8,N/A,,Overcast,180,2013-05-28 17:53:00
1:53 PM,80.1,66.0,62,29.72,8.0,South,18.4,29.9,N/A,,Mostly Cloudy,180,2013-05-28 18:53:00
2:53 PM,80.1,66.0,62,29.73,8.0,South,19.6,28.8,N/A,,Mostly Cloudy,190,2013-05-28 19:53:00
3:53 PM,80.1,66.0,62,29.73,8.0,South,15.0,25.3,N/A,,Scattered Clouds,180,2013-05-28 20:53:00
4:53 PM,80.1,66.9,64,29.70,8.0,South,17.3,23.0,N/A,,Overcast,180,2013-05-28 21:53:00
5:53 PM,80.1,66.9,64,29.70,8.0,South,20.7,28.8,N/A,,Scattered Clouds,180,2013-05-28 22:53:00
6:53 PM,79.0,66.9,66,29.69,8.0,South,15.0,24.2,N/A,,Overcast,170,2013-05-28 23:53:00
7:53 PM,78.1,66.0,66,29.68,8.0,South,16.1,25.3,N/A,,Clear,170,2013-05-29 00:53:00
8:53 PM,77.0,64.9,66,29.69,9.0,SSE,12.7,-,N/A,,Clear,150,2013-05-29 01:53:00
9:53 PM,75.0,64.9,71,29.75,10.0,South,5.8,-,N/A,,Partly Cloudy,180,2013-05-29 02:53:00
10:53 PM,75.0,64.9,71,29.75,10.0,SSE,10.4,-,N/A,,Clear,160,2013-05-29 03:53:00
11:53 PM,73.9,64.9,73,29.74,9.0,SSE,8.1,-,N/A,,Clear,150,2013-05-29 04:53:00